Погода в Топчино

Украина / Днепропетровская область     48°57′04″N   34°47′31″E
темп.,
°C
ветер,
м/с
пор.,
м/с
влажн.,
%
обл.,
%
осадки,
мм/ч
давл.,
гПа
погр.,
м
17 октября, вс
вс1700:00+12с3545100 0.0 1018117
03:00+12с3747100 0.0 1017195
06:00+11с3657100 0.0 1017229
09:00+11ссв3556100 0.0 1018259
12:00+12с3458100 0.0 1018501
15:00+13ссз445998 0.0 1017602
18:00+11ссз22605 0.0 101718
21:00+8ссз38745 0.0 1018158
18 октября, пн
пн1800:00+6ссз358228 0.0 101977
03:00+5ссз348764 0.0 101966
06:00+4сз239099 0.0 101937
09:00+7сз356899 0.0 1020244
12:00+11зсз564776 0.0 10201187
15:00+12зсз564198 0.0 10181459
18:00+9зсз3753100 0.0 1019168
21:00+8з3761100 0.0 1019176
19 октября, вт
вт1900:00+7з4782100 0.9 10191079
03:00+8з4980100 1.1 1018553
06:00+7ссз4980100 0.4 1019918
09:00+7ссз697512 0.9 1020823
12:00+10ссз79383 0.0 10221592
15:00+11сз79375 0.0 10221884
18:00+8сз510485 0.0 1024327
21:00+5зсз39605 0.0 1026207
20 октября, ср
ср2000:00+4зсз386531 0.0 1026144
03:00+3зсз366989 0.0 1027106
06:00+2зсз357426 0.0 102896
09:00+5зсз24635 0.0 1028203
12:00+9з34455 0.0 10281026
15:00+11зюз453493 0.0 10271217
18:00+8ю223755 0.0 102611
21:00+7ююз4637100 0.0 102594
21 октября, чт
чт2100:00+7ююз4114083 0.0 1024251
03:00+7ююз5125569 0.0 1024319
06:00+7ююз6146196 0.0 1023369
09:00+9ююз7156518 0.0 1022504
12:00+15юз9124976 0.0 1021937
15:00+17юз91141100 0.0 10181217
18:00+14ююз6134595 0.0 1017395
21:00+13ююз71445100 0.0 1017657